Location: Faicchio
(41.2833°N, 14.4833°E)
Time: 07:14:15
(UTC+00:00)

Cosmos 2315 Rocket - Pass Details

Date: 15 June 2025
Orbit: 966 x 1000 km, 82.9° (Epoch: 17 July)

Event Time Altitude Azimuth Distance (km) Brightness Sun altitude
Rises 02:31:29 0° 352° (N) 3,691 7.5 -9.3°
Reaches altitude 10° 02:33:59 10° 352° (N) 2,744 6.9 -9.0°
Maximum altitude 02:40:18 89° 266° (W) 994 4.1 -8.1°
Drops below altitude 10° 02:46:38 10° 175° (S) 2,749 6.0 -7.2°
Sets 02:49:09 0° 175° (S) 3,698 6.7 -6.8°
